FW8396 Weather Reports


Display with metric or nautical units.
time (UTC)temp
F
wind
direction
speed
MPH
gust
MPH
rain 1hr
in
rain 24hr
in
rain mn
in
humidity
%
barometer
mb
20260901160059 87 39 2.0 6.0 0.00 0.17 0.00 71 1017.5
20260901154535 87 54 1.0 8.0 0.00 0.17 0.00 72 1017.3
20260901153033 86 304 2.0 9.0 0.00 0.17 0.00 73 1017.2
20260901151535 86 346 1.0 7.0 0.00 0.17 0.00 76 1017.3
20260901150035 85 296 1.0 7.0 0.00 0.17 0.00 77 1017.4
20260901144533 85 317 1.0 5.0 0.00 0.17 0.00 79 1017.5
20260901143043 84 284 1.0 4.0 0.00 0.17 0.00 79 1017.4
20260901141541 84 284 2.0 6.0 0.00 0.17 0.00 79 1017.6
20260901140040 84 317 0.0 5.0 0.00 0.17 0.00 80 1017.6
20260901134538 84 0 1.0 5.0 0.00 0.17 0.00 80 1017.7
20260901133035 84 28 2.0 5.0 0.00 0.17 0.00 81 1017.7
20260901131535 82 0 0.0 2.0 0.00 0.17 0.00 84 1017.6
20260901130036 81 0 0.0 3.0 0.00 0.17 0.00 85 1017.5
20260901124537 80 294 0.0 3.0 0.00 0.17 0.00 86 1017.2
20260901123046 80 0 0.0 3.0 0.00 0.17 0.00 86 1016.9
20260901121539 80 0 0.0 3.0 0.00 0.17 0.00 87 1017.0
20260901120045 80 0 0.0 3.0 0.00 0.17 0.00 87 1016.9
20260901114541 80 0 0.0 2.0 0.00 0.17 0.00 87 1016.7
20260901113036 80 0 0.0 2.0 0.00 0.17 0.00 87 1016.8
20260901111535 80 177 0.0 3.0 0.00 0.17 0.00 87 1016.6
20260901110034 80 149 0.0 1.0 0.00 0.17 0.00 87 1016.5
20260901104532 80 0 0.0 0.0 0.00 0.17 0.00 87 1016.4
20260901103033 80 0 0.0 0.0 0.00 0.17 0.00 87 1016.6
20260901101536 80 0 0.0 0.0 0.00 0.17 0.00 87 1016.4
20260901100038 80 0 0.0 0.0 0.00 0.17 0.00 87 1016.5
20260901094536 81 0 0.0 0.0 0.00 0.17 0.00 87 1016.7
20260901093033 81 0 0.0 0.0 0.00 0.17 0.00 87 1016.7
20260901091535 81 0 0.0 0.0 0.00 0.17 0.00 86 1017.0
20260901090035 81 0 0.0 0.0 0.00 0.17 0.00 87 1016.9
20260901084537 81 0 0.0 0.0 0.00 0.17 0.00 86 1017.0
20260901083033 81 0 0.0 0.0 0.00 0.17 0.00 86 1017.0
20260901081536 81 0 0.0 0.0 0.00 0.17 0.00 86 1016.8
20260901080038 81 0 0.0 0.0 0.00 0.17 0.00 86 1016.8
20260901074535 81 0 0.0 0.0 0.00 0.17 0.00 86 1017.0
20260901073036 81 0 0.0 0.0 0.00 0.17 0.00 85 1017.0
20260901071535 82 0 0.0 0.0 0.00 0.17 0.00 85 1017.0
20260901070035 82 0 0.0 0.0 0.00 0.17 0.00 85 1017.0
20260901064534 82 0 0.0 0.0 0.00 0.17 0.00 84 1017.2
20260901063044 82 0 0.0 0.0 0.00 0.17 0.00 84 1017.2
20260901061537 82 0 0.0 0.0 0.00 0.17 0.00 83 1017.3
20260901060037 83 0 0.0 0.0 0.00 0.17 0.00 83 1017.2
20260901054534 83 0 0.0 0.0 0.00 0.17 0.00 82 1017.2
20260901053035 83 0 0.0 0.0 0.00 0.17 0.00 82 1017.1
20260901051540 84 0 0.0 0.0 0.00 0.17 0.00 81 1017.1
20260901050034 84 0 0.0 0.0 0.00 0.17 0.00 80 1016.9
20260901044534 85 0 0.0 0.0 0.00 0.17 0.17 79 1016.8
20260901043037 85 0 0.0 1.0 0.00 0.17 0.17 79 1016.9
20260901041536 85 0 0.0 5.0 0.00 0.17 0.17 78 1016.9
20260901040033 85 140 0.0 3.0 0.00 0.17 0.17 78 1016.9
20260901034535 86 151 1.0 5.0 0.00 0.17 0.17 77 1016.9
20260901033034 86 0 0.0 4.0 0.00 0.17 0.17 76 1016.9
20260901031535 86 138 0.0 3.0 0.00 0.17 0.17 76 1016.7
20260901030033 86 0 0.0 3.0 0.00 0.17 0.17 76 1016.4
20260901024532 86 0 0.0 3.0 0.00 0.17 0.17 75 1015.9
20260901023040 86 0 0.0 2.0 0.00 0.17 0.17 75 1015.9
20260901021541 86 119 0.0 3.0 0.00 0.17 0.17 75 1015.8
20260901020045 87 138 1.0 4.0 0.00 0.17 0.17 74 1015.6
20260901014536 87 0 0.0 3.0 0.00 0.17 0.17 73 1015.5
20260901013034 87 161 0.0 4.0 0.00 0.17 0.17 73 1015.3
20260901011534 87 0 0.0 2.0 0.00 0.17 0.17 72 1015.4
20260901010037 88 124 0.0 3.0 0.00 0.17 0.17 72 1015.5
20260901004541 88 158 0.0 5.0 0.00 0.17 0.17 71 1015.6
20260901003036 89 0 0.0 4.0 0.00 0.17 0.17 70 1015.6
20260901001535 89 157 0.0 2.0 0.00 0.17 0.17 70 1015.7
20260901000048 89 129 1.0 7.0 0.00 0.17 0.17 70 1015.6
20260831234534 89 138 1.0 6.0 0.00 0.17 0.17 70 1015.7
20260831233032 90 110 1.0 6.0 0.00 0.17 0.17 69 1015.6
20260831231546 90 109 0.0 4.0 0.00 0.17 0.17 70 1015.7
20260831230037 90 135 1.0 4.0 0.00 0.17 0.17 70 1015.6
20260831224532 90 138 1.0 3.0 0.00 0.17 0.17 70 1015.7
20260831223042 90 109 0.0 3.0 0.00 0.17 0.17 71 1015.7
20260831221534 90 136 1.0 4.0 0.00 0.17 0.17 70 1015.7
20260831220034 90 84 0.0 3.0 0.00 0.17 0.17 71 1015.8
20260831214533 90 173 1.0 3.0 0.00 0.17 0.17 70 1015.8
20260831213034 89 0 0.0 3.0 0.00 0.17 0.17 71 1016.1
20260831211533 88 0 0.0 2.0 0.00 0.17 0.17 73 1016.3
20260831210034 86 0 0.0 2.0 0.00 0.17 0.17 79 1016.5
20260831204534 84 0 0.0 4.0 0.00 0.17 0.17 85 1016.8
20260831203034 82 170 0.0 2.0 0.01 0.17 0.17 87 1016.8
20260831201535 81 0 0.0 1.0 0.14 0.17 0.17 88 1016.9
20260831200124 81 0 0.0 3.0 0.17 0.17 0.17 88 1017.2
20260831194601 80 136 0.0 2.0 0.17 0.17 0.17 87 1017.4
20260831193033 80 175 2.0 10.0 0.16 0.16 0.16 85 1017.8
20260831191533 84 167 5.0 12.0 0.02 0.02 0.02 80 1017.9
20260831190037 92 84 1.0 8.0 0.00 0.00 0.00 67 1017.8
20260831184536 94 101 2.0 6.0 0.00 0.00 0.00 60 1017.7
20260831183037 95 158 1.0 4.0 0.00 0.00 0.00 59 1017.7
20260831181543 95 109 2.0 4.0 0.00 0.00 0.00 60 1017.9
20260831180033 93 0 1.0 5.0 0.00 0.00 0.00 62 1018.1
20260831174537 92 0 1.0 6.0 0.00 0.00 0.00 64 1018.1
20260831173037 91 88 1.0 4.0 0.00 0.00 0.00 65 1018.4
20260831171539 91 0 1.0 4.0 0.00 0.00 0.00 64 1018.4
20260831170038 93 5 2.0 6.0 0.00 0.00 0.00 62 1018.2
20260831164540 93 293 1.0 4.0 0.00 0.00 0.00 62 1018.1
20260831163039 92 36 2.0 7.0 0.00 0.00 0.00 64 1018.2
20260831161536 92 123 1.0 4.0 0.00 0.00 0.00 65 1018.2